Location: Gradaro
(45.0833°N, 10.8833°E)
Time: 00:40:04
(UTC+00:00)

Cosmos 2263 Rocket - Pass Details

Date: 28 April 2021
Orbit: 824 x 848 km, 71.0° (Epoch: 15 May)

Event Time Altitude Azimuth Distance (km) Brightness Sun altitude
Rises 22:13:57 0° 259° (W) 3,355 5.4 -28.9°
Reaches altitude 10° 22:17:24 10° 281° (W) 2,428 4.9 -29.1°
Maximum altitude 22:20:44 16° 318° (NW) 2,047 4.8 -29.3°
Drops below altitude 10° 22:24:04 10° 355° (N) 2,440 5.5 -29.4°
Sets 22:27:34 0° 17° (NNE) 3,382 6.2 -29.5°
